Shirley, NY

2:37 AM EDT on September 26, 2017 (GMT -0400)
Brookhaven

Weather History for KHWV - January, 2013

Change the Weather History Date:

Wednesday, January 16, 2013

  Actual Average (KISP) Record (KISP)
Temperature  
Mean Temperature 37 °F -  
Max Temperature 39 °F 34 °F 60 °F (1995)
Min Temperature 35 °F 20 °F 1 °F (2004)
Degree Days  
Heating Degree Days 28    
Moisture  
Dew Point 35 °F    
Average Humidity 93    
Maximum Humidity 97    
Minimum Humidity 85    
Precipitation  
Precipitation 0.87 in - - ()
Sea Level Pressure  
Sea Level Pressure 29.97 in    
Wind  
Wind Speed 4 mph (WNW)    
Max Wind Speed 14 mph    
Max Gust Speed 23 mph    
Visibility 6 miles    
Events Rain    
Averages and records for this station are not official NWS values.
T = Trace of Precipitation, MM = Missing Value Source: NWS Daily Summary

Daily Weather History Graph

Daily Weather History Graph

Search for Another Location

Airport or City:

Trip Planner

Search our weather history database for the weather conditions in past years. The results will help you decide how hot, cold, wet, or windy it might be!

Date:

Astronomy

Jan. 16, 2013 Rise Set
Actual Time 7:13 AM EST 4:49 PM EST
Civil Twilight 6:43 AM EST 5:19 PM EST
Nautical Twilight 6:09 AM EST 5:53 PM EST
Astronomical Twilight 5:36 AM EST 6:26 PM EST
Moon 9:45 AM EST (1/16) 10:41 PM EST (1/16)
Length of Visible Light 10h 36m
Length of Day
9h 36m
Waxing Crescent, 28% of the Moon is Illuminated
Jan 16
Waxing Crescent
Jan 18
First Quarter
Jan 26
Full
Feb 3
Last Quarter
Feb 10
New

Hourly Weather History & Observations

Time (EST) Temp. Windchill Dew Point Humidity Pressure Visibility Wind Dir Wind Speed Gust Speed Precip Events Conditions
12:56 AM 35.1 °F 32.2 °F 30.9 °F 85% 30.22 in 8.0 mi NNE 3.5 mph - 0.03 in Rain Light Rain
1:56 AM 35.1 °F - 32.0 °F 89% 30.20 in 9.0 mi Calm Calm - 0.04 in Rain Light Rain
2:56 AM 35.1 °F - 32.0 °F 89% 30.17 in 6.0 mi Calm Calm - 0.04 in Rain Light Rain
3:56 AM 35.1 °F 32.2 °F 32.0 °F 89% 30.12 in 5.0 mi Variable 3.5 mph - 0.10 in Rain Rain
4:08 AM 35.6 °F 31.7 °F 33.8 °F 93% 30.12 in 5.0 mi Variable 4.6 mph - 0.02 in Rain Rain
4:56 AM 35.1 °F 31.0 °F 33.1 °F 92% 30.10 in 5.0 mi NNE 4.6 mph - 0.16 in Rain Rain
5:56 AM 35.1 °F 30.1 °F 33.1 °F 92% 30.10 in 7.0 mi NNE 5.8 mph - 0.19 in Rain Light Rain
6:56 AM 35.1 °F - 34.0 °F 96% 30.06 in 5.0 mi Calm Calm - 0.10 in Rain Light Rain
7:56 AM 35.1 °F 32.2 °F 34.0 °F 96% 30.06 in 7.0 mi North 3.5 mph - 0.09 in Rain Light Rain
8:03 AM 35.6 °F 31.7 °F 33.8 °F 93% 30.06 in 6.0 mi North 4.6 mph - 0.00 in Rain Light Rain
8:36 AM 35.6 °F 32.8 °F 33.8 °F 93% 30.04 in 4.0 mi Variable 3.5 mph - 0.04 in Rain Light Rain
8:56 AM 35.1 °F 32.2 °F 34.0 °F 96% 30.01 in 5.0 mi Variable 3.5 mph - 0.04 in Rain Light Rain
9:56 AM 36.0 °F - 35.1 °F 97% 29.95 in 7.0 mi Calm Calm - 0.01 in   Overcast
10:56 AM 37.9 °F 32.1 °F 35.1 °F 89% 29.96 in 7.0 mi NW 8.1 mph - 0.01 in Rain Light Rain
11:56 AM 37.9 °F 34.4 °F 36.0 °F 93% 29.92 in 7.0 mi NNW 4.6 mph - 0.04 in Rain Light Rain
12:56 PM 37.9 °F 33.5 °F 35.1 °F 89% 29.91 in 10.0 mi North 5.8 mph - 0.01 in Rain Light Rain
1:56 PM 37.9 °F 35.5 °F 36.0 °F 93% 29.81 in 6.0 mi Variable 3.5 mph - 0.01 in   Overcast
2:28 PM 39.2 °F 35.9 °F 37.4 °F 93% 29.80 in 6.0 mi NNW 4.6 mph - 0.00 in   Overcast
2:52 PM 37.4 °F 29.8 °F 35.6 °F 93% 29.83 in 1.8 mi NNW 11.5 mph 23.0 mph 0.00 in Rain Light Rain
2:53 PM 37.0 °F 28.5 °F 35.1 °F 93% 29.84 in 1.8 mi NNW 13.8 mph 23.0 mph 0.00 in Rain Light Rain
3:33 PM 37.4 °F 32.1 °F 35.6 °F 93% 29.89 in 2.0 mi NNW 6.9 mph - 0.00 in   Overcast
3:45 PM 37.4 °F 32.1 °F 35.6 °F 93% 29.88 in 4.0 mi North 6.9 mph - 0.00 in   Overcast
3:56 PM 36.0 °F 33.3 °F 35.1 °F 97% 29.89 in 5.0 mi NNW 3.5 mph - 0.00 in   Overcast
4:56 PM 37.0 °F 34.5 °F 35.1 °F 93% 29.89 in 7.0 mi NW 3.5 mph - N/A   Overcast
5:56 PM 37.0 °F 34.5 °F 35.1 °F 93% 29.91 in 6.0 mi SW 3.5 mph - N/A   Overcast
6:56 PM 37.0 °F 33.3 °F 36.0 °F 96% 29.90 in 6.0 mi SSW 4.6 mph - N/A   Overcast
7:16 PM 37.4 °F 32.8 °F 35.6 °F 93% 29.89 in 7.0 mi SSW 5.8 mph - N/A   Overcast
7:56 PM 37.0 °F 30.4 °F 35.1 °F 93% 29.90 in 8.0 mi SSW 9.2 mph - N/A   Overcast
8:21 PM 37.4 °F 31.4 °F 35.6 °F 93% 29.89 in 8.0 mi WSW 8.1 mph - N/A   Overcast
8:51 PM 37.4 °F 31.4 °F 35.6 °F 93% 29.92 in 10.0 mi West 8.1 mph - 0.00 in   Overcast
8:56 PM 37.9 °F 31.5 °F 36.0 °F 93% 29.92 in 10.0 mi West 9.2 mph - 0.00 in   Overcast
9:56 PM 37.9 °F 32.7 °F 35.1 °F 89% 29.90 in 10.0 mi WSW 6.9 mph - 0.00 in   Mostly Cloudy
10:24 PM 37.4 °F 32.8 °F 35.6 °F 93% 29.91 in 9.0 mi SW 5.8 mph - N/A   Scattered Clouds
10:56 PM 37.0 °F 32.4 °F 35.1 °F 93% 29.91 in 9.0 mi WSW 5.8 mph - N/A   Clear
11:56 PM 37.0 °F 33.3 °F 35.1 °F 93% 29.91 in 9.0 mi SW 4.6 mph - N/A   Clear